Flag for Spain Weather past 2 weeks in Valladolid, Spain

Now
79 °F

Passing clouds.


Feels Like: 79 °F
Forecast: 58 / 89 °F
Wind: 5 mph from East

Location: Valladolid / Villanubla

Current Time: Sep 2, 2014 at 12:30:15 PM

Latest Report: Sep 2, 2014 at 12:00 PM


Visibility: N/A

Pressure: 30.07 "Hg

Humidity: 32%

Dew point: 46 °F

Location of ValladolidLocation

Historic Weather in Valladolid — Graph

°F

Valladolid temperature yesterday

Maximum temperature yesterday: 90 °F (at 4:00 PM)
Minimum temperature yesterday: 54 °F (at 8:00 AM)
Average temperature yesterday: 77 °F

Past Weeks' High & Low Weather Summary

 TemperatureHumidityPressure
High90 °F (Aug 25, 5:30 PM)100% (Aug 27, 7:00 AM)30.18 "Hg (Aug 27, 7:00 AM)
Low48 °F (Aug 20, 7:30 AM)13% (Aug 25, 4:30 PM)29.86 "Hg (Aug 18, 4:30 PM)
Average73 °F48%30.07 "Hg
* Reported Aug 18 11:00 AM — Sep 2 11:30 AM, Valladolid, Weather by CustomWeather, © 2014

Note: Actual official high and low records may vary slightly from our data, if they occured in-between our weather recording intervals... More about our weather records

Advertising

Valladolid weather history for previous 24 hours

 ConditionsComfort  
Time TempWeatherWind HumidityBarometerVisibility
11:30 AM
Sep 2
77 °FPassing clouds.3 mph34%30.07 "HgN/A
11:00 AM73 °FPassing clouds.3 mph38%30.07 "HgN/A
10:30 AM70 °FPassing clouds.3 mph46%30.07 "HgN/A
10:00 AM68 °FSunny.6 mph49%30.07 "Hg10 mi
9:30 AM64 °FSunny.7 mph56%30.07 "Hg10 mi
9:00 AM63 °FSunny.1 mph59%30.07 "Hg10 mi
8:30 AM57 °FClear.3 mph67%30.07 "Hg10 mi
8:00 AM57 °FPassing clouds.3 mph67%30.07 "HgN/A
7:30 AM59 °FPassing clouds.3 mph63%30.04 "HgN/A
7:00 AM61 °FClear.8 mph63%30.04 "Hg10 mi
10:00 PM
Sep 1
75 °FClear.6 mph25%30.07 "Hg10 mi
9:30 PM77 °FSunny.7 mph22%30.07 "Hg10 mi
9:00 PM79 °FSunny.6 mph21%30.04 "Hg10 mi
8:30 PM84 °FPassing clouds.6 mph16%30.04 "HgN/A
8:00 PM86 °FPassing clouds.6 mph15%30.04 "HgN/A
7:30 PM88 °FPassing clouds.5 mph17%30.04 "HgN/A
7:00 PM88 °FPassing clouds.8 mph16%30.07 "HgN/A
6:30 PM88 °FSunny.5 mph16%30.07 "Hg10 mi
6:00 PM88 °FPassing clouds.6 mph16%30.07 "HgN/A
5:30 PM88 °FPassing clouds.7 mph16%30.07 "HgN/A
5:00 PM88 °FSunny.3 mph16%30.07 "Hg10 mi
4:30 PM88 °FPassing clouds.8 mph16%30.07 "HgN/A
4:00 PM90 °FPassing clouds.7 mph17%30.09 "HgN/A
3:30 PM86 °FSunny.3 mph22%30.09 "Hg10 mi
3:00 PM86 °FSunny.5 mph24%30.09 "Hg10 mi
2:30 PM86 °FSunny.5 mph25%30.12 "Hg10 mi
2:00 PM84 °FPassing clouds.5 mph29%30.12 "HgN/A
1:30 PM81 °FPassing clouds.6 mph34%30.12 "HgN/A
1:00 PM81 °FSunny.2 mph37%30.12 "Hg10 mi
12:30 PM79 °FSunny.2 mph37%30.15 "Hg10 mi
12:00 PM75 °FPassing clouds.3 mph41%30.15 "HgN/A
Weather by CustomWeather, © 2014

See weather overviewHow to use our weather pages